Stations météo

réclame
Mon MeteoGroup
Aultbea, Grande-Bretagne (3034): Température de l'air & dewpoint: 17.10.2018 23:00:00 - 23.10.2018 23:00:00 (BST)Aultbea, Grande-Bretagne (3034): Température de l'air -20cm & Température de l'air -100cm: 17.10.2018 23:00:00 - 23.10.2018 23:00:00 (BST)Aultbea, Grande-Bretagne (3034): Vitesse du vent & gusts: 17.10.2018 23:00:00 - 23.10.2018 23:00:00 (BST)Aultbea, Grande-Bretagne (3034): Direction du vent: 17.10.2018 23:00:00 - 23.10.2018 23:00:00 (BST)Aultbea, Grande-Bretagne (3034): reduced air pressure: 17.10.2018 23:00:00 - 23.10.2018 23:00:00 (BST)Aultbea, Grande-Bretagne (3034): visibility: 17.10.2018 23:00:00 - 23.10.2018 23:00:00 (BST)Aultbea, Grande-Bretagne (3034): Quantités de précipitations: 17.10.2018 23:00:00 - 23.10.2018 23:00:00 (BST)
Date & Time tt [°C] td [°C] tt -20cm [°C] tt -100cm [°C] ff [km/h] ff [knt] fx [km/h] fx [knt] dd ppp [hPa] vv [km] rr [mm]
23.10.2018 23:00:00 11,6 11,0 - - 29 16 50 27 W 1025,3 10 0,0
23.10.2018 22:00:00 11,7 11,1 - - 28 15 46 25 W 1025,2 3,6 0,0
23.10.2018 21:00:00 11,8 11,0 - - 26 14 48 26 W 1024,8 9 0,0
23.10.2018 20:00:00 12,0 11,1 - - 28 15 50 27 WSW 1024,3 10 0,0
23.10.2018 19:00:00 12,0 11,4 - - 42 23 57 31 W 1023,3 4,9 0,4
23.10.2018 18:00:00 12,2 11,4 - - 35 19 52 28 W 1023,2 4,9 0,0
23.10.2018 17:00:00 12,2 11,6 - - 26 14 48 26 WSW 1022,8 9 0,2
23.10.2018 16:00:00 12,2 11,3 - - 28 15 46 25 WSW 1023,0 15 0,0
23.10.2018 15:00:00 11,9 11,1 - - 31 17 52 28 W 1023,0 16 0,0
23.10.2018 14:00:00 11,8 11,1 - - 31 17 48 26 WSW 1022,9 7 0,0
23.10.2018 13:00:00 11,6 11,1 - - 28 15 - - W 1023,2 5 0,2
23.10.2018 12:00:00 11,6 11,2 - - 31 17 46 25 W 1023,3 3,3 0,8
23.10.2018 11:00:00 11,6 11,0 - - 35 19 54 29 W 1023,5 2,7 0,2
23.10.2018 10:00:00 11,6 10,9 10,5 11,0 34 18 59 32 W 1022,6 8 0,2
23.10.2018 09:00:00 11,5 10,8 - - 39 21 65 35 W 1022,3 3,4 0,6
23.10.2018 08:00:00 11,5 10,7 - - 39 21 61 33 W 1021,6 4,0 0,2
23.10.2018 07:00:00 11,3 10,5 - - 34 18 63 34 W 1022,1 5 0,4
23.10.2018 06:00:00 11,2 10,2 - - 35 19 55 30 W 1022,1 9 1,6
23.10.2018 05:00:00 10,9 10,1 - - 39 21 57 31 WSW 1021,6 3,0 2,0
23.10.2018 04:00:00 10,8 9,8 - - 39 21 68 37 WSW 1021,8 4,7 0,8
23.10.2018 03:00:00 11,2 9,5 - - 39 21 70 38 WSW 1021,9 5 0,4
23.10.2018 02:00:00 11,2 9,7 - - 46 25 76 41 WSW 1022,0 3,2 0,4
23.10.2018 01:00:00 11,7 9,8 - - 44 24 67 36 WSW 1022,4 6 0,0
23.10.2018 00:00:00 11,8 9,7 - - 44 24 74 40 WSW 1022,9 6 0,0
22.10.2018 23:00:00 11,8 9,5 - - 41 22 65 35 WSW 1023,2 7 0,0
22.10.2018 22:00:00 11,8 9,4 - - 41 22 72 39 WSW 1023,8 8 0,0
22.10.2018 21:00:00 11,8 9,0 - - 44 24 70 38 WSW 1024,8 8 0,0
22.10.2018 20:00:00 11,8 8,9 - - 46 25 76 41 WSW 1025,5 8 0,0
22.10.2018 19:00:00 11,7 8,6 - - 42 23 72 39 WSW 1025,7 8 0,0
22.10.2018 18:00:00 11,6 8,4 - - 46 25 74 40 WSW 1026,0 8 0,0
22.10.2018 17:00:00 11,5 8,1 - - 46 25 70 38 WSW 1026,6 9 0,0
22.10.2018 16:00:00 11,4 7,8 - - 46 25 81 44 WSW 1026,8 9 0,0
22.10.2018 15:00:00 11,5 7,3 - - 46 25 68 37 WSW 1027,3 10 0,0
22.10.2018 14:00:00 11,3 7,8 - - 42 23 65 35 WSW 1028,0 10 0,0
22.10.2018 13:00:00 10,6 8,7 - - 37 20 74 40 WSW 1029,0 3,5 0,2
22.10.2018 12:00:00 10,8 7,6 - - 35 19 65 35 WSW 1029,7 13 0,0
22.10.2018 11:00:00 10,7 8,3 - - 37 20 63 34 WSW 1029,8 12 0,0
22.10.2018 10:00:00 10,2 8,4 10,2 11,0 34 18 57 31 WSW 1029,8 15 0,2
22.10.2018 09:00:00 10,0 6,9 - - 31 17 52 28 WSW 1030,5 14 0,4
22.10.2018 08:00:00 9,8 6,7 - - 29 16 - - WSW 1030,4 11 0,4
22.10.2018 07:00:00 8,9 6,0 - - 26 14 - - WSW 1030,6 15 0,0
22.10.2018 06:00:00 9,5 5,0 - - 28 15 46 25 W 1030,7 18 0,0
22.10.2018 05:00:00 9,2 5,1 - - 26 14 - - W 1030,5 16 0,0
22.10.2018 04:00:00 8,7 5,5 - - 21 11 57 31 W 1030,1 17 0,8
22.10.2018 03:00:00 9,6 4,6 - - 37 20 67 36 W 1029,4 21 0,0
22.10.2018 02:00:00 8,7 4,7 - - 39 21 59 32 W 1028,9 4,0 0,0
22.10.2018 01:00:00 9,6 3,4 - - 35 19 70 38 W 1028,4 14 0,0
22.10.2018 00:00:00 8,8 4,3 - - 39 21 63 34 W 1028,2 10 0,2
21.10.2018 23:00:00 8,7 4,0 - - 37 20 68 37 W 1027,6 16 0,4
21.10.2018 22:00:00 8,1 4,0 - - 34 18 57 31 W 1027,1 9 0,0
21.10.2018 21:00:00 9,1 2,2 - - 34 18 59 32 WSW 1026,4 16 0,0
21.10.2018 20:00:00 9,2 2,1 - - 35 19 63 34 W 1025,9 19 0,0
21.10.2018 19:00:00 9,3 4,6 - - 31 17 68 37 WSW 1024,9 18 0,0
21.10.2018 18:00:00 9,7 4,2 - - 35 19 59 32 W 1024,1 18 0,0
21.10.2018 17:00:00 8,6 5,2 - - 39 21 70 38 W 1023,4 7 0,2
21.10.2018 16:00:00 10,5 5,2 - - 29 16 59 32 W 1022,8 17 0,0
21.10.2018 15:00:00 10,6 3,2 - - 34 18 54 29 W 1022,3 40 0,0
21.10.2018 14:00:00 10,4 4,6 - - 34 18 52 28 W 1021,5 17 0,0
21.10.2018 13:00:00 10,7 5,8 - - 31 17 46 25 W 1020,6 18 0,0
21.10.2018 12:00:00 10,0 7,4 - - 34 18 54 29 W 1020,0 18 0,4
21.10.2018 11:00:00 10,6 8,7 - - 31 17 50 27 WSW 1019,2 7 0,2
21.10.2018 10:00:00 10,1 8,1 11,0 11,0 37 20 50 27 SSW 1018,5 19 0,0
21.10.2018 09:00:00 9,7 7,9 - - 28 15 - - SSW 1018,8 17 0,2
21.10.2018 08:00:00 9,8 8,6 - - 22 12 - - S 1019,0 40 0,0
21.10.2018 07:00:00 9,7 7,2 - - 22 12 - - SSW 1018,7 30 0,4
21.10.2018 06:00:00 8,7 5,9 - - 16 9 - - S 1018,8 50 1,0
21.10.2018 05:00:00 8,8 7,6 - - 21 11 - - W 1018,9 6 1,6
21.10.2018 04:00:00 9,9 9,4 - - 21 11 - - W 1018,6 5 1,2
21.10.2018 03:00:00 11,6 11,1 - - 26 14 - - WSW 1018,4 4,0 1,6
21.10.2018 02:00:00 11,5 11,0 - - 18 10 - - WSW 1018,1 3,6 0,8
21.10.2018 01:00:00 13,1 12,5 - - 34 18 48 26 SW 1018,1 5 0,2
21.10.2018 00:00:00 12,9 12,4 - - 34 18 54 29 SW 1018,6 8 0,6
20.10.2018 23:00:00 13,2 12,6 - - 37 20 54 29 SW 1018,6 7 0,4
20.10.2018 22:00:00 13,0 12,6 - - 37 20 52 28 SSW 1018,9 6 0,4
20.10.2018 21:00:00 13,2 12,7 - - 37 20 54 29 SSW 1019,1 14 0,0
20.10.2018 20:00:00 13,3 12,8 - - 42 23 57 31 SW 1019,5 3,1 0,0
20.10.2018 19:00:00 13,8 12,7 - - 41 22 55 30 S 1018,8 28 0,0
20.10.2018 18:00:00 13,7 12,9 - - 31 17 50 27 S 1019,3 24 0,0
20.10.2018 17:00:00 13,6 12,8 - - 35 19 54 29 SSW 1019,3 5 0,0
20.10.2018 16:00:00 13,8 12,5 - - 37 20 57 31 S 1019,0 21 0,0
20.10.2018 15:00:00 14,1 12,4 - - 39 21 54 29 S 1019,3 45 0,0
20.10.2018 14:00:00 14,0 12,3 - - 37 20 59 32 SSW 1019,0 25 0,0
20.10.2018 13:00:00 13,7 12,3 - - 37 20 65 35 SSW 1019,5 24 0,0
20.10.2018 12:00:00 13,8 12,4 - - 42 23 57 31 S 1019,1 15 0,0
20.10.2018 11:00:00 13,2 12,1 - - 35 19 54 29 SSW 1019,3 9 -
20.10.2018 10:00:00 13,2 11,7 10,2 11,0 39 21 57 31 SSW 1019,2 7 0,4
20.10.2018 09:00:00 13,7 12,0 - - 37 20 65 35 S 1018,8 25 0,0
20.10.2018 08:00:00 13,8 11,9 - - 34 18 50 27 S 1018,6 35 0,0
20.10.2018 07:00:00 13,6 11,6 - - 35 19 54 29 S 1018,4 30 0,0
20.10.2018 06:00:00 13,5 11,1 - - 37 20 50 27 S 1018,6 22 0,0
20.10.2018 05:00:00 13,0 10,1 - - 24 13 - - S 1019,0 45 0,0
20.10.2018 04:00:00 11,9 8,7 - - 24 13 - - S 1019,7 45 0,0
20.10.2018 03:00:00 10,9 6,5 - - 28 15 - - S 1020,7 24 0,0
20.10.2018 02:00:00 10,4 6,4 - - 31 17 - - S 1021,4 19 0,0
20.10.2018 01:00:00 9,9 6,8 - - 18 10 - - S 1021,9 23 0,0
20.10.2018 00:00:00 9,5 6,1 - - 21 11 - - S 1022,1 25 0,0
19.10.2018 23:00:00 9,4 6,3 - - 16 9 - - S 1022,4 30 0,0
19.10.2018 22:00:00 9,3 7,3 - - 16 9 - - S 1022,6 17 0,0
19.10.2018 21:00:00 9,6 6,8 - - 16 9 - - SSW 1022,4 24 0,0
19.10.2018 20:00:00 10,0 6,3 - - 13 7 - - WSW 1022,2 23 0,0
19.10.2018 19:00:00 10,1 6,7 - - 11 6 - - WSW 1021,3 20 0,0
19.10.2018 18:00:00 10,3 6,7 - - 13 7 - - WSW 1021,4 22 0,0
19.10.2018 17:00:00 11,4 5,9 - - 21 11 - - WSW 1021,0 27 0,0
19.10.2018 16:00:00 11,9 7,4 - - 21 11 - - W 1020,4 24 0,0
19.10.2018 15:00:00 12,0 7,9 - - 29 16 - - W 1020,1 15 0,0
19.10.2018 14:00:00 12,2 7,8 - - 18 10 - - W 1019,2 30 0,0
19.10.2018 13:00:00 11,8 7,8 - - 24 13 - - WSW 1018,1 13 0,0
19.10.2018 12:00:00 11,4 7,8 - - 24 13 - - WSW 1017,4 13 0,0
19.10.2018 11:00:00 10,8 8,3 - - 21 11 48 26 W 1016,4 12 1,0
19.10.2018 10:00:00 10,2 9,5 10,4 11,2 37 20 61 33 SSW 1015,2 4,6 0,6
19.10.2018 09:00:00 10,2 8,6 - - 44 24 67 36 S 1014,4 7 0,0
19.10.2018 08:00:00 9,7 8,4 - - 46 25 67 36 S 1014,3 7 1,0
19.10.2018 07:00:00 10,0 7,8 - - 46 25 63 34 S 1014,7 11 0,8
19.10.2018 06:00:00 10,5 7,1 - - 46 25 63 34 S 1015,1 11 0,0
19.10.2018 05:00:00 10,7 6,1 - - 34 18 57 31 S 1015,7 24 0,0
19.10.2018 04:00:00 10,6 5,9 - - 29 16 57 31 S 1017,0 30 0,0
19.10.2018 03:00:00 10,7 5,6 - - 31 17 48 26 S 1018,3 35 0,0
19.10.2018 02:00:00 10,7 5,4 - - 35 19 57 31 S 1019,1 45 0,0
19.10.2018 01:00:00 10,7 5,6 - - 37 20 54 29 S 1019,2 30 0,0
19.10.2018 00:00:00 10,5 5,5 - - 29 16 57 31 S 1020,3 40 0,0
18.10.2018 23:00:00 10,5 5,6 - - 29 16 46 25 S 1021,0 35 0,0
18.10.2018 22:00:00 10,5 5,9 - - 34 18 - - S 1021,9 40 0,0
18.10.2018 21:00:00 10,3 6,2 - - 34 18 - - S 1022,5 45 0,0
18.10.2018 20:00:00 10,6 6,8 - - 35 19 - - S 1023,1 35 0,0
18.10.2018 19:00:00 10,2 7,3 - - 29 16 - - S 1023,2 22 0,0
18.10.2018 18:00:00 9,9 8,1 - - 29 16 - - S 1023,8 7 0,0
18.10.2018 17:00:00 10,9 7,1 - - 26 14 - - S 1024,0 50 0,0
18.10.2018 16:00:00 10,8 7,1 - - 28 15 - - S 1024,1 45 0,0
18.10.2018 15:00:00 10,7 7,2 - - 24 13 - - S 1024,9 50 0,0
18.10.2018 14:00:00 9,8 7,7 - - 29 16 - - SSW 1025,5 12 0,0
18.10.2018 13:00:00 10,2 7,7 - - 21 11 - - SSW 1026,0 40 0,0
18.10.2018 12:00:00 10,5 5,9 - - 22 12 - - S 1026,0 29 0,0
18.10.2018 11:00:00 10,5 6,2 - - 24 13 - - SSW 1026,2 40 0,0
18.10.2018 10:00:00 10,3 5,8 10,4 11,2 18 10 - - SW 1026,3 28 0,0
18.10.2018 09:00:00 9,8 6,5 - - 18 10 - - SSW 1026,2 24 0,0
18.10.2018 08:00:00 9,9 6,5 - - 16 9 - - SSW 1025,8 30 0,0
18.10.2018 07:00:00 9,4 6,6 - - 16 9 - - WSW 1026,0 13 0,0
18.10.2018 06:00:00 9,7 6,0 - - 21 11 - - SSW 1025,8 22 0,0
18.10.2018 05:00:00 9,1 5,9 - - 16 9 - - SW 1025,5 26 0,0
18.10.2018 04:00:00 9,3 6,1 - - 21 11 - - SW 1025,1 40 0,0
18.10.2018 03:00:00 9,3 6,2 - - 16 9 - - SW 1025,2 22 0,0
18.10.2018 02:00:00 9,7 6,6 - - 22 12 - - SW 1025,0 28 0,0
18.10.2018 01:00:00 9,4 6,3 - - 18 10 - - SW 1024,7 25 0,0
18.10.2018 00:00:00 9,4 6,3 - - 15 8 - - SW 1024,4 26 0,0
17.10.2018 23:00:00 9,5 5,9 - - 21 11 - - WSW 1024,0 26 0,0

tt = Température de l'air
td = dewpoint
tt -20cm = Température de l'air -20cm
tt -100cm = Température de l'air -100cm
ff = Vitesse du vent
fx = gusts
dd = Direction du vent
ppp = reduced air pressure
vv = visibility
rr = Quantités de précipitations

stations d'obs. à proximité